Find Starlink 11274

NORAD ID: 61001 Int'l Des: 2024-158 Owner: SPXS Country: US Constellation: starlink operational
又名: STARLINK-11274 [DTC] celestrak
LEOCIRCULAR

当前视图

正在加载3D地球...

About Starlink 11274

Starlink 11274 (NORAD 61001) is a starlink constellation satellite (v2 mini d2c) launched Sep 5, 2024 by SPXS of US. It operates in LEO, CIRCULAR orbit with a mass of 960.00 kg.

即将过境

Passes for default location (London). Set your location on the main map for personalized predictions.

高度历史

Loading altitude history...

两行轨道根数

1 61001U 24158M 26264.07611303 -.00000167 00000-0 34825-5 0 9991
2 61001 53.1592 37.9785 0001293 88.5567 271.5599 15.69705895118270
Epoch: Sep 21, 2026 • Age: 13 hours

当前状态

高度 364.0 km
远地点 / 近地点 N/A
速度 7.70 km/s
星下点 46.81°N, 55.7°W
发射日期 Sep 5, 2024
运行时间 2 years
类型 internet

技术详情

分类 Payload
质量 960.00 kg
干质量 910.00 kg
长度 0.30 m
跨度 29.00 m
形状 ? Box + pan
制造商 SPXS
平台类型 Starlink V2MD
阶段状态 In Orbit
所有者/国家 SPXS/US

Most Searched